Tracking 19246 objects as of 20-Aug-2018
HD Live streaming from Space Station
objects crossing your sky now

O3B PFM

Track O3B PFM now!
10-day predictions
O3B PFM is classified as:


NORAD ID: 39191
Int'l Code: 2013-031D
Perigee: 8,071.7 km
Apogee: 8,074.3 km
Inclination: 0.0 °
Period: 287.9 minutes
Semi major axis: 14444 km
RCS: Unknown
Launch date: June 25, 2013
Source: O3b Networks (O3B)
Launch site: FRENCH GUIANA (FRGUI)

O3b satellites will reach customers across the planet between 45 degrees north and south latitude. O3b offers the benefits of fiber-optic lines without the costs to maintain them.
aabbcc
Your satellite tracking list
Your tracking list is empty




NASA's NSSDC Master Catalog

Two Line Element Set (TLE):
1 39191U 13031D   18231.56743906 -.00000032 +00000-0 +00000-0 0  9992
2 39191 000.0347 005.4679 0000904 189.1996 165.3277 05.00115135094090
Source of the keplerian elements: AFSPC